Date,TemperatureHighF,TemperatureAvgF,TemperatureLowF,DewpointHighF,DewpointAvgF,DewpointLowF,HumidityHigh,HumidityAvg,HumidityLow,PressureMaxIn,PressureMinIn,WindSpeedMaxMPH,WindSpeedAvgMPH,GustSpeedMaxMPH,PrecipitationSumIn
2013-1-1,48,41,32,28,21,13,85,47,31,30.23,30.07,33,12,44,0.00
2013-1-2,58,46,38,20,12,7,41,26,18,30.07,30.00,32,11,49,0.00
2013-1-3,59,50,43,15,8,0,24,19,11,30.12,29.97,24,6,33,0.00
2013-1-4,60,46,33,22,9,-1,53,25,11,30.21,30.11,23,6,32,0.00
2013-1-5,61,43,33,25,18,11,63,39,17,30.26,30.16,8,3,12,0.00
2013-1-6,45,38,32,38,31,18,95,76,47,30.16,29.96,14,3,20,0.20
2013-1-7,56,42,34,36,31,22,95,66,32,30.03,29.90,8,1,23,0.05
2013-1-8,67,50,35,34,27,20,62,43,24,30.10,30.02,8,3,16,0.00
2013-1-9,68,52,40,42,33,27,80,52,26,30.09,29.92,9,3,14,0.00
2013-1-10,43,38,32,41,34,25,95,86,60,30.02,29.85,22,9,31,0.20
2013-1-11,41,33,24,29,23,20,89,70,43,30.16,30.02,13,3,17,0.06
2013-1-12,45,34,24,28,21,14,91,64,29,30.12,30.03,14,3,22,0.00
2013-1-13,46,36,28,26,20,14,80,52,32,30.11,30.00,11,4,23,0.00
2013-1-14,46,34,25,15,5,-3,63,31,17,30.30,30.07,18,7,27,0.00
2013-1-15,52,42,33,21,12,-2,43,30,24,30.37,30.28,25,6,33,0.00
2013-1-16,61,52,44,26,20,17,36,29,24,30.29,30.04,47,11,49,0.00
2013-1-17,65,56,52,20,17,14,25,21,17,30.09,30.02,39,17,51,0.00
2013-1-18,65,57,53,21,18,16,25,22,18,30.06,30.01,26,15,37,0.00
2013-1-19,65,58,51,19,16,12,22,19,15,30.12,30.02,21,11,30,0.00
2013-1-20,66,55,43,16,11,5,33,18,11,30.09,29.97,19,6,25,0.00
2013-1-21,70,60,48,10,2,-3,18,10,7,30.02,29.95,27,10,33,0.00
2013-1-22,75,61,50,29,12,-5,38,16,7,30.02,29.95,20,7,26,0.00
2013-1-23,71,62,54,40,34,27,54,36,24,30.02,29.96,12,4,19,0.00
2013-1-24,61,56,52,53,47,35,87,71,45,30.08,29.96,12,2,18,0.01
2013-1-25,59,55,51,52,50,46,95,84,67,30.04,29.86,14,4,22,0.83
2013-1-26,53,50,48,52,49,47,96,96,94,29.93,29.80,7,2,14,0.52
2013-1-27,50,44,37,47,42,35,97,92,82,29.95,29.90,12,5,23,0.05
2013-1-28,45,38,30,37,33,28,95,83,52,30.16,29.94,12,5,23,0.09
2013-1-29,52,40,29,40,34,27,93,82,49,30.21,30.13,18,2,26,0.01
2013-1-30,64,51,40,42,35,29,85,57,34,30.27,30.15,30,6,39,0.00
2013-1-31,64,57,41,36,31,27,80,39,31,30.17,30.05,25,9,37,0.00
2013-2-1,70,56,41,40,31,24,61,42,24,30.12,30.04,7,2,11,0.00
2013-2-2,73,59,46,42,33,25,64,40,18,30.13,30.04,11,2,19,0.00
2013-2-3,64,54,43,45,42,34,83,65,39,30.04,29.92,8,2,13,0.00
2013-2-4,66,51,41,47,40,35,83,68,39,30.03,29.93,9,3,14,0.00
2013-2-5,65,50,41,48,39,31,93,68,35,30.00,29.89,8,3,13,0.00
2013-2-6,57,44,34,44,38,32,94,79,62,30.06,29.90,10,2,16,0.00
2013-2-7,62,48,36,46,36,24,92,67,25,30.08,29.92,10,3,15,0.00
2013-2-8,40,36,32,37,34,31,95,94,89,29.92,29.83,15,7,27,0.50
2013-2-9,42,36,32,37,33,30,95,90,78,30.09,29.89,13,3,16,0.42
2013-2-10,41,36,32,36,34,30,94,89,74,30.09,29.99,8,2,14,0.05
2013-2-11,47,37,29,38,29,15,94,75,43,30.22,30.01,8,1,14,0.01
2013-2-12,54,40,29,27,19,11,65,46,24,30.32,30.21,10,2,19,0.00
2013-2-13,62,46,32,35,25,15,74,46,25,30.24,30.10,8,3,14,0.00
2013-2-14,64,53,37,30,27,22,69,40,25,30.16,30.02,20,6,38,0.00
2013-2-15,63,57,53,23,18,10,29,22,15,30.11,29.98,39,17,48,0.00
2013-2-16,68,56,42,28,17,4,45,27,8,30.07,29.92,20,9,43,0.00
2013-2-17,61,46,35,42,25,17,68,46,21,29.97,29.88,11,5,17,0.00
2013-2-18,60,44,32,42,30,21,91,59,26,29.99,29.89,8,3,11,0.00
2013-2-19,40,38,33,37,35,31,95,89,81,29.92,29.71,15,5,24,0.22
2013-2-20,40,34,29,33,31,26,95,86,68,30.00,29.65,22,6,33,0.55
2013-2-21,45,35,27,38,31,25,92,88,71,30.08,29.96,8,3,15,0.14
2013-2-22,56,40,28,33,27,22,88,64,31,30.20,30.08,10,4,16,0.01
2013-2-23,58,43,32,37,29,24,81,62,34,30.15,29.90,12,3,16,0.00
2013-2-24,52,43,32,28,12,4,82,33,15,30.17,29.92,25,8,44,0.00
2013-2-25,61,45,32,24,16,6,62,34,14,30.19,30.03,12,3,17,0.00
2013-2-26,59,48,32,18,15,9,57,28,18,30.09,29.96,26,10,35,0.00
2013-2-27,59,51,46,16,11,5,23,19,15,30.21,30.06,26,11,37,0.00
2013-2-28,63,56,51,14,10,5,22,16,13,30.26,30.15,29,12,43,0.00
2013-3-1,68,62,57,21,18,13,21,18,15,30.21,30.11,30,16,46,0.00
2013-3-2,76,64,45,31,26,20,50,25,14,30.15,30.00,17,7,23,0.00
2013-3-3,67,52,38,39,29,22,79,44,18,30.02,29.93,12,4,19,0.00
2013-3-4,61,49,38,47,41,33,93,74,46,30.04,29.92,8,2,13,0.00
2013-3-5,66,53,42,49,40,33,91,65,38,30.03,29.92,9,3,17,0.00
2013-3-6,55,45,36,43,40,33,94,82,62,30.03,29.94,11,3,16,0.00
2013-3-7,48,43,36,44,39,32,94,84,66,29.96,29.82,10,3,18,0.02
2013-3-8,42,37,34,40,35,31,95,93,88,30.02,29.74,15,6,23,0.98
2013-3-9,44,39,35,42,38,33,96,93,87,30.19,30.01,14,4,25,0.54
2013-3-10,64,49,36,42,33,25,91,58,24,30.25,30.12,11,3,22,0.00
2013-3-11,70,54,39,39,32,21,69,47,20,30.16,30.00,11,2,15,0.00
2013-3-12,74,60,44,42,29,18,63,34,18,30.03,29.96,26,5,32,0.00
2013-3-13,80,68,54,45,31,26,51,28,14,30.02,29.94,22,6,32,0.00
2013-3-14,83,66,52,49,34,26,54,34,15,30.00,29.93,16,6,26,0.00
2013-3-15,79,62,48,46,40,32,65,46,24,29.96,29.85,7,4,13,0.00
2013-3-16,71,56,45,47,34,26,76,46,22,29.87,29.80,7,3,14,0.00
2013-3-17,69,54,44,50,40,32,80,60,34,29.91,29.84,10,3,13,0.00
2013-3-18,65,52,40,48,39,30,86,63,30,30.00,29.89,13,2,13,0.00
2013-3-19,67,54,41,49,39,31,84,60,38,30.04,29.95,9,3,16,0.00
2013-3-20,69,56,43,50,42,37,80,61,37,30.03,29.89,12,3,18,0.00
2013-3-21,63,52,42,50,42,36,89,72,48,29.90,29.75,13,3,16,0.00
2013-3-22,66,50,38,50,44,35,94,80,52,29.87,29.70,9,2,15,0.00
2013-3-23,69,54,37,49,34,16,86,51,18,29.94,29.83,23,4,28,0.00
2013-3-24,70,56,43,48,41,34,82,60,36,29.94,29.83,7,3,13,0.00
2013-3-25,75,58,45,50,40,34,70,54,24,29.90,29.82,8,4,15,0.00
2013-3-26,68,55,44,42,34,25,66,48,24,29.88,29.82,11,4,16,0.00
2013-3-27,66,52,43,45,36,29,82,55,29,29.97,29.84,12,3,16,0.00
2013-3-28,70,55,42,48,41,34,83,61,36,30.00,29.94,14,3,16,0.00
2013-3-29,72,57,45,52,45,35,91,64,39,30.01,29.96,7,2,14,0.00
2013-3-30,69,59,46,52,46,35,85,63,41,30.02,29.95,11,3,17,0.00
2013-3-31,62,51,41,48,43,34,91,76,54,30.05,29.98,13,5,22,0.00
2013-4-1,58,49,41,45,43,39,93,81,56,30.07,29.99,15,4,19,0.00
2013-4-2,65,54,45,51,46,42,94,79,58,30.01,29.92,10,3,15,0.00
2013-4-3,79,63,45,53,40,33,72,46,19,30.01,29.94,7,2,16,0.00
2013-4-4,71,58,47,48,40,32,79,53,31,29.99,29.93,10,2,17,0.00
2013-4-5,64,53,43,51,47,40,93,81,57,29.98,29.91,14,4,20,0.00
2013-4-6,66,54,42,52,47,39,95,78,54,29.99,29.90,8,2,14,0.01
2013-4-7,66,53,42,52,46,39,93,79,56,29.90,29.74,6,2,12,0.00
2013-4-8,49,44,38,46,41,36,94,90,77,29.77,29.63,17,6,25,0.02
2013-4-9,61,47,34,42,35,29,94,66,35,29.98,29.77,10,2,18,0.01
2013-4-10,71,56,44,35,26,17,50,32,13,30.04,29.96,11,3,23,0.00
2013-4-11,72,56,42,45,33,22,67,43,21,29.97,29.71,12,3,18,0.00
2013-4-12,76,58,42,51,38,29,74,51,18,29.79,29.67,9,3,24,0.00
2013-4-13,72,58,44,50,41,33,77,54,26,29.79,29.71,10,3,15,0.00
2013-4-14,60,49,40,48,41,25,94,74,47,29.79,29.71,8,2,15,0.00
2013-4-15,49,46,43,47,44,40,95,93,85,29.84,29.76,11,4,18,0.04
2013-4-16,49,42,34,40,36,31,93,81,59,29.94,29.81,12,6,19,0.00
2013-4-17,63,48,33,37,28,13,93,51,23,30.09,29.94,12,2,24,0.00
2013-4-18,64,54,45,24,15,10,38,22,14,30.13,30.06,26,10,37,0.00
2013-4-19,75,62,46,23,14,6,36,17,9,30.08,29.91,22,7,33,0.00
2013-4-20,81,62,44,36,28,19,48,29,12,29.93,29.82,21,4,21,0.00
2013-4-21,80,64,48,43,36,29,51,36,21,29.90,29.84,9,3,13,0.00
2013-4-22,74,59,45,50,36,27,76,46,20,29.88,29.77,8,3,14,0.00
2013-4-23,78,59,43,51,38,30,75,50,18,29.84,29.77,11,3,19,0.00
2013-4-24,67,54,46,51,43,31,95,70,33,29.85,29.75,8,2,18,0.02
2013-4-25,64,50,43,48,44,40,95,82,54,30.06,29.85,8,2,15,0.04
2013-4-26,76,57,40,50,43,30,91,62,37,30.09,30.03,7,2,16,0.00
2013-4-27,80,66,49,52,38,24,61,37,20,30.08,29.90,12,4,16,0.00
2013-4-28,83,70,53,50,38,20,61,33,16,29.90,29.73,10,3,19,0.00
2013-4-29,81,66,51,48,37,28,52,36,20,29.77,29.67,8,4,13,0.00
2013-4-30,73,60,47,52,41,18,90,52,22,29.76,29.68,11,2,15,0.00
2013-5-1,80,63,39,50,31,3,93,45,7,29.97,29.76,22,8,30,0.00
2013-5-2,75,69,63,7,-1,-10,9,6,4,30.00,29.90,30,14,43,0.00
2013-5-3,83,70,54,30,14,-6,28,13,6,29.93,29.70,24,8,31,0.00
2013-5-4,76,60,44,49,30,16,59,35,12,29.74,29.64,11,4,18,0.00
2013-5-5,60,50,42,48,41,27,91,71,52,29.89,29.72,12,3,17,0.01
2013-5-6,53,49,48,51,48,45,95,94,88,29.96,29.86,13,6,23,0.34
2013-5-7,53,48,46,48,46,43,95,91,77,30.02,29.92,14,5,21,0.21
2013-5-8,58,49,42,49,45,40,95,87,71,30.05,30.00,10,2,16,0.00
2013-5-9,61,53,46,52,48,44,95,86,62,30.03,29.96,9,2,14,0.00
2013-5-10,75,62,44,55,48,40,94,66,29,30.01,29.94,10,2,16,0.00
2013-5-11,85,71,53,50,42,34,73,40,17,30.00,29.90,14,3,26,0.00
2013-5-12,89,74,58,44,38,31,49,30,13,29.97,29.84,19,4,20,0.00
2013-5-13,92,75,59,51,40,34,58,32,14,29.89,29.79,11,4,22,0.00
2013-5-14,86,69,51,48,36,7,61,35,5,29.86,29.80,10,3,19,0.00
2013-5-15,76,61,47,50,39,28,70,46,27,29.90,29.84,11,3,16,0.00
2013-5-16,74,61,49,51,44,38,79,57,37,29.85,29.77,8,3,15,0.00
2013-5-17,68,56,48,52,48,40,93,76,53,29.91,29.77,12,3,20,0.00
2013-5-18,71,58,49,52,49,45,92,74,47,29.93,29.88,8,3,14,0.00
2013-5-19,76,61,44,54,48,42,92,67,43,29.90,29.80,10,2,15,0.00
2013-5-20,84,69,51,55,42,32,78,44,16,29.85,29.77,17,5,29,0.00
2013-5-21,82,68,53,53,44,36,70,44,22,29.81,29.70,13,4,16,0.00
2013-5-22,75,60,44,52,39,28,86,48,20,29.73,29.66,12,4,21,0.00
2013-5-23,68,53,38,47,38,27,81,59,38,29.87,29.71,12,3,18,0.00
2013-5-24,72,55,36,47,35,16,68,47,30,29.91,29.84,9,2,15,0.00
2013-5-25,71,56,43,49,33,11,75,43,26,29.92,29.87,9,3,15,0.00
2013-5-26,71,56,40,47,37,22,71,51,23,29.96,29.89,8,3,18,0.00
2013-5-27,74,58,43,52,44,36,82,63,38,29.92,29.80,10,3,19,0.00
2013-5-28,70,58,46,54,48,42,91,72,51,29.80,29.68,13,2,16,0.00
2013-5-29,80,65,49,55,48,39,77,55,37,29.71,29.65,15,3,17,0.00
2013-5-30,80,66,50,54,47,40,72,53,35,29.76,29.65,8,3,15,0.00
2013-5-31,84,68,50,56,47,38,69,49,31,29.77,29.71,8,3,13,0.00
2013-6-1,94,78,61,59,43,26,57,34,9,29.73,29.61,16,4,28,0.00
2013-6-2,84,72,59,56,44,31,68,37,20,29.65,29.58,10,3,16,0.00
2013-6-3,79,65,52,54,43,29,72,45,25,29.74,29.62,9,3,14,0.00
2013-6-4,78,63,49,53,39,17,72,43,25,29.84,29.73,10,2,14,0.00
2013-6-5,82,65,49,55,40,21,73,41,25,29.86,29.78,8,3,13,0.00
2013-6-6,81,66,50,56,46,33,73,50,28,29.80,29.75,8,3,13,0.00
2013-6-7,84,68,54,57,46,30,66,47,35,29.76,29.66,7,3,14,0.00
2013-6-8,84,71,56,56,47,35,61,44,31,29.75,29.63,10,3,12,0.00
2013-6-9,84,72,58,52,34,10,54,27,6,29.76,29.71,8,3,18,0.00
2013-6-10,81,70,58,51,33,12,61,28,11,29.79,29.70,12,3,17,0.00
2013-6-11,92,73,58,56,37,10,60,31,6,29.82,29.75,8,3,14,0.00
2013-6-12,83,69,57,57,47,32,61,45,32,29.83,29.76,8,3,13,0.00
2013-6-13,83,67,51,54,40,22,74,40,17,29.87,29.78,14,3,15,0.00
2013-6-14,82,68,52,50,35,10,70,32,7,29.78,29.71,9,3,14,0.00
2013-6-15,81,65,48,50,24,-6,58,24,4,29.84,29.75,9,3,16,0.00
2013-6-16,83,65,47,51,28,3,64,28,11,29.89,29.83,8,3,14,0.00
2013-6-17,84,68,51,50,41,35,57,40,19,29.87,29.79,10,3,15,0.00
2013-6-18,83,67,52,52,40,27,62,38,21,29.79,29.73,10,3,16,0.00
2013-6-19,83,66,50,49,34,14,56,33,10,29.73,29.69,9,3,14,0.00
2013-6-20,83,66,49,49,38,23,57,39,17,29.77,29.69,10,3,16,0.00
2013-6-21,81,66,51,49,34,21,51,32,14,29.79,29.72,12,3,15,0.00
2013-6-22,83,66,52,50,42,28,61,44,19,29.79,29.71,7,2,15,0.00
2013-6-23,78,64,51,52,43,34,69,48,26,29.74,29.67,12,3,15,0.00
2013-6-24,75,62,51,54,46,36,84,58,36,29.83,29.71,14,3,19,0.00
2013-6-25,82,67,52,58,53,43,88,63,34,29.89,29.80,12,2,15,0.00
2013-6-26,89,74,58,59,54,50,76,52,33,29.87,29.81,11,2,15,0.00
2013-6-27,92,77,64,57,53,46,65,46,26,29.89,29.85,10,2,15,0.00
2013-6-28,95,78,61,55,48,38,54,36,21,29.88,29.75,15,3,18,0.00
2013-6-29,99,84,67,56,45,28,40,27,15,29.77,29.62,13,3,21,0.00
2013-6-30,100,85,72,60,48,38,40,29,13,29.65,29.59,10,2,15,0.00
2013-7-1,94,82,70,57,51,46,47,35,21,29.74,29.63,9,2,17,0.00
2013-7-2,92,80,66,61,49,42,47,35,20,29.82,29.73,10,3,15,0.00
2013-7-3,92,79,70,56,49,42,52,35,23,29.76,29.64,11,2,16,0.00
2013-7-4,91,78,65,56,45,32,59,33,18,29.68,29.61,13,2,15,0.00
2013-7-5,88,76,63,58,51,43,66,44,23,29.67,29.62,10,3,14,0.00
2013-7-6,87,72,63,60,54,50,70,55,36,29.66,29.60,13,2,15,0.00
2013-7-7,91,78,62,57,52,41,65,42,27,29.72,29.63,11,3,17,0.00
2013-7-8,96,78,62,54,44,34,58,33,14,29.80,29.71,11,3,15,0.00
2013-7-9,94,82,71,59,48,31,51,32,12,29.83,29.76,12,3,17,0.00
2013-7-10,84,74,67,59,56,50,70,52,37,29.81,29.75,10,1,10,0.00
2013-7-11,76,70,63,63,58,52,80,65,54,29.83,29.75,10,1,13,0.01
2013-7-12,86,72,62,61,58,55,83,65,43,29.80,29.73,12,2,16,0.00
2013-7-13,88,75,61,58,54,49,73,51,33,29.81,29.74,11,2,15,0.00
2013-7-14,91,78,66,56,52,48,57,42,25,29.78,29.69,10,2,16,0.00
2013-7-15,89,76,64,55,48,40,56,38,25,29.72,29.67,13,3,22,0.00
2013-7-16,88,75,59,47,34,17,35,23,10,29.84,29.70,13,4,18,0.00
2013-7-17,91,73,57,46,24,-1,39,19,4,29.90,29.83,13,3,15,0.00
2013-7-18,91,74,59,53,39,27,49,30,16,29.86,29.74,10,3,14,0.00
2013-7-19,92,76,63,57,38,21,55,27,10,29.77,29.68,8,2,14,0.00
2013-7-20,83,74,65,66,53,25,73,49,21,29.72,29.64,18,2,27,0.00
2013-7-21,79,72,65,67,61,54,93,70,51,29.75,29.63,17,2,19,0.24
2013-7-22,80,72,62,69,63,59,95,75,56,29.86,29.79,10,2,14,0.02
2013-7-23,85,71,62,64,61,57,92,72,46,29.88,29.79,11,2,14,0.00
2013-7-24,88,72,62,62,59,56,83,64,40,29.83,29.75,12,2,19,0.00
2013-7-25,89,76,62,58,55,50,78,49,31,29.85,29.78,10,2,14,0.00
2013-7-26,89,77,69,62,56,51,63,50,29,29.90,29.83,10,2,14,0.00
2013-7-27,89,75,63,58,54,48,66,49,31,29.86,29.73,10,2,12,0.00
2013-7-28,86,72,59,53,43,30,58,39,17,29.77,29.72,14,3,17,0.00
2013-7-29,84,71,58,54,48,40,62,45,29,29.88,29.76,11,2,15,0.00
2013-7-30,85,71,57,57,49,40,65,48,33,29.95,29.87,11,2,15,0.00
2013-7-31,87,72,57,57,46,8,70,43,10,29.93,29.82,11,3,18,0.00
2013-8-1,84,72,58,54,29,-15,62,27,2,29.84,29.74,15,2,16,0.00
2013-8-2,86,70,54,52,34,11,56,29,11,29.83,29.76,12,3,14,0.00
2013-8-3,85,70,56,53,38,20,59,33,14,29.84,29.79,10,2,13,0.00
2013-8-4,88,72,56,54,40,21,55,32,12,29.87,29.80,10,3,13,0.00
2013-8-5,88,71,57,52,34,1,55,29,4,29.86,29.79,12,3,13,0.00
2013-8-6,87,70,55,51,33,0,54,29,4,29.90,29.81,11,3,16,0.00
2013-8-7,83,67,54,49,34,10,55,32,9,29.94,29.86,13,2,16,0.00
2013-8-8,84,68,54,48,32,3,51,29,5,29.88,29.78,15,3,17,0.00
2013-8-9,83,68,52,51,35,9,60,32,7,29.84,29.77,12,3,15,0.00
2013-8-10,79,65,50,49,33,15,58,31,14,29.89,29.83,13,3,15,0.00
2013-8-11,84,68,52,54,42,26,59,40,22,29.88,29.78,11,3,14,0.00
2013-8-12,86,70,54,55,41,28,56,37,26,29.84,29.77,10,3,14,0.00
2013-8-13,91,74,57,56,39,25,51,30,13,29.83,29.75,12,3,15,0.00
2013-8-14,95,78,64,56,44,31,51,32,15,29.78,29.69,11,2,13,0.00
2013-8-15,94,78,65,48,37,20,42,24,8,29.79,29.74,12,2,14,0.00
2013-8-16,92,77,66,55,41,11,53,30,8,29.82,29.76,12,2,16,0.00
2013-8-17,93,78,64,56,49,44,54,38,26,29.81,29.69,11,3,16,0.00
2013-8-18,94,84,68,57,52,46,50,35,25,29.72,29.65,17,4,22,0.00
2013-8-19,92,78,67,58,52,44,61,42,29,29.75,29.68,22,4,28,0.00
2013-8-20,94,77,62,52,40,4,63,31,4,29.78,29.70,10,3,21,0.00
2013-8-21,94,80,65,51,40,28,40,26,11,29.78,29.70,13,3,16,0.00
2013-8-22,94,81,67,51,45,37,46,30,19,29.77,29.68,12,3,17,0.00
2013-8-23,94,78,64,56,46,42,49,34,18,29.72,29.62,12,3,17,0.00
2013-8-24,94,84,72,64,51,37,61,37,15,29.72,29.63,23,6,30,0.00
2013-8-25,85,74,64,67,57,37,93,58,29,29.79,29.69,15,2,28,0.72
2013-8-26,78,72,67,65,63,61,87,73,60,29.80,29.72,14,4,19,0.02
2013-8-27,88,76,66,64,61,58,81,60,42,29.73,29.65,11,2,19,0.00
2013-8-28,91,77,66,61,59,57,78,56,35,29.77,29.65,12,2,18,0.00
2013-8-29,83,76,68,67,63,58,73,65,52,29.84,29.75,20,6,24,0.00
2013-8-30,86,77,70,67,65,62,81,66,51,29.86,29.78,18,4,26,0.00
2013-8-31,87,74,66,68,64,61,86,72,50,29.84,29.76,16,2,19,0.00
2013-9-1,89,74,65,65,63,57,90,69,41,29.80,29.72,12,1,16,0.00
2013-9-2,91,72,63,68,60,54,88,68,33,29.79,29.72,27,2,33,0.14
2013-9-3,91,77,64,63,59,56,84,57,35,29.80,29.72,13,2,17,0.00
2013-9-4,91,75,68,67,60,57,91,61,34,29.81,29.73,8,1,16,0.56
2013-9-5,94,77,65,69,60,57,86,60,33,29.79,29.73,30,2,43,0.26
2013-9-6,93,76,67,74,57,51,76,54,29,29.77,29.70,19,2,30,0.03
2013-9-7,88,77,66,67,59,55,78,55,35,29.75,29.69,18,3,26,0.01
2013-9-8,88,74,63,59,52,41,79,50,20,29.73,29.65,15,2,19,0.00
2013-9-9,85,73,63,54,49,41,63,44,27,29.68,29.61,16,2,18,0.00
2013-9-10,84,71,61,59,54,45,74,55,36,29.79,29.66,10,2,17,0.00
2013-9-11,84,69,58,56,44,27,65,42,15,29.84,29.78,11,3,16,0.00
2013-9-12,88,73,58,52,39,30,45,31,15,29.82,29.72,13,3,21,0.00
2013-9-13,90,73,59,46,39,28,48,32,12,29.73,29.57,12,3,17,0.00
2013-9-14,93,77,64,51,43,38,43,32,16,29.61,29.52,15,4,17,0.00
2013-9-15,93,78,65,50,45,37,48,33,17,29.66,29.58,12,3,15,0.00
2013-9-16,93,76,66,54,44,36,47,33,16,29.68,29.62,12,3,18,0.00
2013-9-17,86,70,56,52,44,34,60,40,20,29.67,29.59,14,2,15,0.00
2013-9-18,80,64,51,52,35,19,67,36,13,29.68,29.61,10,2,16,0.00
2013-9-19,86,68,52,57,43,28,66,42,12,29.70,29.65,13,2,17,0.00
2013-9-20,82,67,54,56,45,32,74,46,18,29.73,29.67,10,2,17,0.00
2013-9-21,76,62,50,54,44,22,93,54,14,29.76,29.67,11,2,16,0.00
2013-9-22,71,58,51,52,48,43,93,72,39,29.75,29.66,13,3,17,0.00
2013-9-23,85,70,54,44,35,30,65,30,14,29.81,29.72,32,4,35,0.00
2013-9-24,84,66,52,52,38,31,57,37,17,29.84,29.75,12,3,17,0.00
2013-9-25,75,59,46,46,37,30,77,45,23,29.77,29.62,20,4,21,0.00
2013-9-26,62,52,43,49,44,39,90,77,47,29.82,29.62,16,4,21,0.00
2013-9-27,74,60,42,44,26,18,82,33,13,29.94,29.82,20,4,24,0.00
2013-9-28,83,66,51,31,22,15,31,19,8,29.96,29.88,18,3,23,0.00
2013-9-29,83,64,50,31,25,19,35,25,11,29.98,29.90,12,2,18,0.00
2013-9-30,84,66,52,34,26,18,39,25,10,29.92,29.79,11,3,17,0.00
2013-10-1,82,64,51,51,32,25,57,33,13,29.85,29.78,13,3,15,0.00
2013-10-2,79,62,50,53,33,13,75,37,14,29.85,29.76,12,2,15,0.00
2013-10-3,70,57,47,53,41,16,87,57,26,29.81,29.73,12,2,15,0.00
2013-10-4,74,62,46,35,19,11,62,23,10,29.96,29.79,27,12,37,0.00
2013-10-5,75,65,59,18,12,3,19,13,6,30.02,29.93,38,16,45,0.00
2013-10-6,82,71,62,18,11,1,16,10,5,29.99,29.87,25,7,36,0.00
2013-10-7,81,66,50,39,16,0,38,16,7,29.89,29.80,14,3,17,0.00
2013-10-8,71,57,48,51,33,13,92,46,11,29.83,29.72,13,3,16,0.00
2013-10-9,50,47,43,46,44,42,95,92,81,29.73,29.64,25,9,30,0.74
2013-10-10,58,47,41,46,43,38,95,86,61,29.96,29.72,17,2,20,0.06
2013-10-11,70,53,39,49,39,35,92,64,28,30.00,29.88,15,2,19,0.01
2013-10-12,72,56,44,52,41,34,88,62,29,29.91,29.82,11,2,16,0.00
2013-10-13,66,52,41,48,40,24,89,65,35,29.95,29.84,14,3,16,0.00
2013-10-14,72,63,46,31,29,24,50,28,19,29.95,29.85,28,10,33,0.00
2013-10-15,78,64,51,37,29,25,43,28,15,29.90,29.78,15,3,17,0.00
2013-10-16,77,64,48,28,25,21,43,25,13,29.97,29.88,25,6,28,0.00
2013-10-17,76,58,46,31,27,23,49,33,15,29.97,29.87,11,2,15,0.00
2013-10-18,77,63,46,31,24,18,50,26,11,29.94,29.88,28,6,34,0.00
2013-10-19,83,65,51,37,23,11,38,22,7,29.94,29.86,14,3,19,0.00
2013-10-20,78,60,47,33,24,15,39,27,12,29.90,29.82,8,3,13,0.00
2013-10-21,80,63,43,42,23,10,42,22,12,29.90,29.84,14,4,18,0.00
2013-10-22,82,71,61,43,19,15,28,14,9,29.88,29.76,25,6,25,0.00
2013-10-23,78,63,45,52,35,18,89,42,12,29.81,29.72,14,3,18,0.00
2013-10-24,70,54,40,51,41,30,81,64,45,29.98,29.80,8,2,12,0.00
2013-10-25,82,63,48,47,31,22,46,32,11,30.03,29.93,14,2,17,0.00
2013-10-26,81,68,54,36,28,24,34,24,14,30.00,29.89,19,5,27,0.00
2013-10-27,78,62,47,46,33,25,88,38,14,29.89,29.70,13,3,18,0.00
2013-10-28,50,48,45,48,46,42,96,94,86,29.87,29.70,19,8,23,0.30
2013-10-29,53,46,41,46,43,39,96,88,72,29.94,29.83,16,5,20,0.38
2013-10-30,63,50,37,46,40,31,94,72,36,30.00,29.92,12,1,15,0.00
2013-10-31,71,59,44,32,25,18,59,29,17,30.02,29.92,23,5,26,0.00
2013-11-1,72,65,59,30,25,16,27,22,18,30.00,29.87,34,12,34,0.00
2013-11-2,73,60,46,46,30,22,70,35,17,29.90,29.78,15,3,21,0.00
2013-11-3,66,50,39,47,34,24,80,56,26,29.83,29.75,11,2,14,0.00
2013-11-4,54,46,35,45,40,28,92,80,62,29.89,29.71,10,2,14,0.00
2013-11-5,68,53,38,39,22,1,92,36,11,30.08,29.87,22,4,26,0.00
2013-11-6,70,62,50,14,0,-14,16,9,4,30.13,30.03,35,10,37,0.00
2013-11-7,76,64,52,28,6,-18,27,12,3,30.03,29.91,27,9,32,0.00
2013-11-8,75,58,48,30,20,11,37,24,10,29.97,29.87,10,3,12,0.00
2013-11-9,76,57,44,21,14,-7,36,21,4,30.02,29.93,8,2,13,0.00
2013-11-10,73,58,47,38,24,17,53,29,13,30.05,29.97,8,2,11,0.00
2013-11-11,77,64,53,36,33,27,47,32,21,30.03,29.94,19,4,23,0.00
2013-11-12,79,69,53,36,31,25,45,25,19,30.08,29.98,17,4,22,0.00
2013-11-13,82,71,58,36,30,26,31,23,15,29.98,29.81,19,9,26,0.00
2013-11-14,82,68,52,37,31,22,50,28,13,29.83,29.65,17,6,23,0.00
2013-11-15,61,52,46,47,41,29,89,69,34,29.68,29.57,15,3,19,0.00
2013-11-16,49,46,44,45,43,40,95,88,75,29.89,29.67,9,2,13,0.05
2013-11-17,61,48,37,46,42,34,94,80,56,30.01,29.88,10,1,13,0.00
2013-11-18,62,50,39,49,45,37,94,83,60,30.08,29.98,10,2,13,0.01
2013-11-19,53,49,46,48,46,44,94,89,79,30.01,29.87,9,1,11,0.00
2013-11-20,55,49,44,49,46,42,95,90,73,29.92,29.83,9,2,12,0.03
2013-11-21,52,50,46,50,48,45,96,95,94,29.83,29.78,16,4,18,0.29
2013-11-22,50,45,41,48,42,37,95,88,80,29.87,29.75,13,2,21,0.46
2013-11-23,55,45,37,41,38,34,91,78,55,30.02,29.87,15,2,16,0.00
2013-11-24,57,45,37,41,37,33,88,74,53,30.14,30.01,11,1,16,0.00
2013-11-25,65,50,39,41,35,26,84,59,24,30.18,30.10,17,2,25,0.00
2013-11-26,63,57,50,35,31,26,48,37,32,30.14,29.97,35,12,37,0.00
2013-11-27,64,55,51,36,32,29,51,43,30,29.97,29.81,26,12,32,0.00
2013-11-28,63,53,45,45,34,28,75,49,27,29.98,29.82,18,4,23,0.00
2013-11-29,60,52,45,49,39,33,86,62,43,30.10,29.97,16,2,22,0.03
2013-11-30,67,54,43,42,37,34,85,55,34,30.12,30.02,16,3,22,0.00
2013-12-1,67,60,53,34,28,9,48,30,13,30.11,30.03,23,5,29,0.00
2013-12-2,70,55,45,32,24,17,55,32,15,30.05,29.86,11,2,12,0.00
2013-12-3,64,49,39,48,35,24,95,64,24,29.86,29.69,21,6,30,0.06
2013-12-4,50,42,35,45,37,33,95,84,57,29.90,29.69,20,5,28,0.06
2013-12-5,46,37,30,38,33,28,93,85,65,30.07,29.89,12,2,16,0.06
2013-12-6,46,40,33,35,33,30,89,77,58,30.16,30.07,12,2,14,0.54
2013-12-7,42,39,36,41,36,32,95,91,84,30.09,29.97,26,8,34,0.41
2013-12-8,44,36,28,36,32,25,94,86,67,30.15,30.03,11,3,13,0.01
2013-12-9,45,38,27,25,6,-12,92,33,10,30.23,30.11,50,14,51,0.00
2013-12-10,58,50,41,9,-10,-22,22,8,5,30.22,30.03,33,11,41,0.00
2013-12-11,60,53,41,17,3,-8,27,13,8,30.07,30.02,29,7,33,0.00
2013-12-12,60,47,35,26,18,2,58,35,12,30.14,30.05,12,1,20,0.00
2013-12-13,61,47,33,34,20,14,70,38,17,30.20,30.10,31,5,37,0.00
2013-12-14,62,54,50,21,16,9,27,21,15,30.21,30.10,44,12,52,0.00
2013-12-15,69,62,54,21,12,4,19,14,10,30.12,29.99,42,17,50,0.00
2013-12-16,78,69,65,23,18,14,18,14,10,30.04,29.94,32,9,41,0.00
2013-12-17,79,68,55,35,21,16,28,17,11,30.01,29.89,30,6,36,0.00
2013-12-18,67,55,42,41,30,20,92,42,17,29.89,29.75,11,1,14,0.00
2013-12-19,45,42,37,42,39,36,95,92,83,29.75,29.63,16,4,23,0.43
2013-12-20,49,39,32,42,36,30,96,89,67,29.92,29.69,9,1,11,0.01
2013-12-21,53,41,32,42,37,30,95,85,64,30.04,29.89,8,1,12,0.01
2013-12-22,64,50,38,41,33,27,83,55,31,30.20,30.03,16,3,22,0.00
2013-12-23,64,56,52,31,27,22,40,33,25,30.20,30.10,39,12,48,0.00
2013-12-24,72,63,57,32,27,21,31,26,15,30.11,29.98,27,5,33,0.00
2013-12-25,64,59,56,28,17,1,32,20,10,30.07,29.99,42,18,51,0.00
2013-12-26,62,58,55,10,6,-2,14,12,8,30.06,29.98,44,16,49,0.00
2013-12-27,71,62,50,21,8,-2,26,12,8,30.06,29.96,34,10,43,0.00
2013-12-28,68,53,41,36,17,6,45,25,9,29.96,29.86,8,1,11,0.00
2013-12-29,62,54,48,18,9,-4,23,17,9,30.07,29.92,28,9,32,0.00
2013-12-30,70,54,40,18,4,-15,29,15,5,30.18,30.06,17,1,18,0.00
2013-12-31,68,50,39,22,12,3,35,23,9,30.15,30.04,8,2,12,0.00
2014-1-1,72,58,42,22,16,8,35,20,9,30.07,29.99,24,6,33,0.00
2014-1-2,74,61,47,30,25,20,43,26,15,30.02,29.89,20,5,24,0.00